QPF
0.12 0.24 0.40 0.66 0.88 0.81 0.70 0.71 0.61 0.52 0.39 0.26 0.19 0.18 0.19 0.19 0.21 0.22 0.17 0.16 0.15 0.13 0.11 0.10 0.08 0.06 0.05 0.04 0.05 0.05 0.05 0.06 0.07 0.07 0.07 0.07 0.09 0.12 0.12 0.13 0.13 0.12 0.11
0.13 0.26 0.41 0.57 0.75 0.86 0.79 0.76 0.60 0.54 0.49 0.37 0.32 0.27 0.25 0.23 0.23 0.25 0.25 0.22 0.20 0.19 0.15 0.11 0.09 0.08 0.07 0.06 0.06 0.06 0.07 0.08 0.07 0.06 0.07 0.09 0.09 0.08 0.07 0.07 0.07 0.07 0.06
0.18 0.26 0.30 0.33 0.42 0.50 0.55 0.56 0.56 0.55 0.58 0.55 0.51 0.44 0.33 0.25 0.22 0.22 0.24 0.25 0.23 0.20 0.17 0.13 0.10 0.08 0.07 0.07 0.07 0.08 0.08 0.07 0.07 0.08 0.09 0.07 0.06 0.05 0.03 0.03 0.03 0.04 0.05
0.17 0.24 0.25 0.22 0.21 0.28 0.39 0.45 0.46 0.43 0.47 0.50 0.45 0.40 0.34 0.31 0.28 0.24 0.21 0.20 0.17 0.15 0.13 0.11 0.10 0.09 0.07 0.06 0.07 0.06 0.06 0.06 0.06 0.06 0.05 0.06 0.06 0.06 0.05 0.04 0.04 0.04 0.05
0.14 0.18 0.20 0.17 0.16 0.19 0.24 0.29 0.35 0.39 0.40 0.49 0.51 0.46 0.42 0.35 0.27 0.20 0.15 0.12 0.09 0.07 0.06 0.06 0.06 0.05 0.04 0.04 0.05 0.05 0.04 0.04 0.04 0.04 0.04 0.04 0.05 0.05 0.05 0.05 0.05 0.04 0.05
0.09 0.12 0.16 0.15 0.14 0.14 0.16 0.22 0.26 0.31 0.37 0.47 0.55 0.57 0.53 0.44 0.33 0.23 0.15 0.10 0.08 0.06 0.05 0.05 0.04 0.03 0.02 0.02 0.02 0.03 0.03 0.03 0.03 0.03 0.02 0.02 0.03 0.03 0.04 0.05 0.04 0.04 0.04
0.05 0.06 0.09 0.10 0.13 0.17 0.16 0.20 0.24 0.25 0.25 0.30 0.35 0.39 0.43 0.42 0.37 0.26 0.17 0.11 0.09 0.07 0.06 0.05 0.03 0.03 0.02 0.02 0.02 0.02 0.02 0.02 0.02 0.01 0.01 0.02 0.02 0.02 0.03 0.03 0.03 0.03 0.02
0.03 0.03 0.04 0.05 0.06 0.09 0.09 0.11 0.15 0.14 0.15 0.20 0.25 0.27 0.30 0.30 0.28 0.22 0.15 0.09 0.06 0.04 0.03 0.03 0.03 0.02 0.02 0.02 0.02 0.01 0.01 0.01 0.01 0.02 0.02 0.02 0.02 0.01 0.01 0.01 0.02 0.02 0.02
0.02 0.02 0.03 0.03 0.04 0.05 0.06 0.07 0.08 0.08 0.08 0.11 0.13 0.15 0.16 0.16 0.15 0.12 0.09 0.06 0.03 0.03 0.02 0.02 0.01 0.01 0.01 0.01 0.01 0.01 0.01 0.01 0.01 0.01 0.01 0.01 0.01 0.01 0.01 0.01 0.01 0.02 0.02
0.02 0.02 0.02 0.02 0.03 0.03 0.04 0.05 0.05 0.06 0.07 0.07 0.08 0.07 0.09 0.09 0.09 0.08 0.07 0.05 0.04 0.03 0.02 0.02 0.01 0.01 0.01 0.01 0.01 0.01 0.00 0.00 0.00 0.00 0.01 0.01 0.01 0.01 0.01 0.01 0.01 0.01 0.01
0.02 0.02 0.02 0.02 0.02 0.03 0.04 0.04 0.04 0.04 0.05 0.05 0.05 0.05 0.05 0.05 0.05 0.06 0.06 0.05 0.05 0.04 0.03 0.02 0.01 0.01 0.01 0.01 0.01 0.00 0.00 0.01 0.01 0.01 0.00 0.00 0.00 0.00 0.00 0.00 0.00 0.00 0.00
0.01 0.01 0.01 0.02 0.02 0.03 0.04 0.04 0.04 0.04 0.04 0.04 0.04 0.03 0.03 0.03 0.03 0.03 0.04 0.04 0.03 0.02 0.02 0.01 0.01 0.01 0.01 0.01 0.01 0.01 0.01 0.01 0.01 0.01 0.00 0.00 0.00 0.00 0.00 0.00 0.00 0.00 0.00
0.02 0.01 0.01 0.02 0.02 0.02 0.03 0.03 0.04 0.04 0.03 0.03 0.03 0.02 0.02 0.02 0.02 0.02 0.02 0.02 0.02 0.02 0.02 0.02 0.02 0.02 0.01 0.02 0.02 0.01 0.01 0.01 0.01 0.00 0.00 0.00 0.00 0.00 0.00 0.00 0.00 0.00 0.00
0.02 0.01 0.02 0.02 0.03 0.03 0.03 0.03 0.03 0.02 0.02 0.02 0.02 0.01 0.01 0.01 0.01 0.01 0.01 0.01 0.01 0.01 0.01 0.02 0.02 0.02 0.02 0.02 0.01 0.01 0.01 0.01 0.01 0.01 0.00 0.00 0.00 0.00 0.00 0.00 0.00 0.00 0.00
0.03 0.02 0.03 0.03 0.03 0.03 0.02 0.02 0.02 0.02 0.02 0.01 0.01 0.01 0.01 0.01 0.01 0.01 0.01 0.02 0.01 0.01 0.01 0.01 0.01 0.01 0.01 0.01 0.01 0.01 0.00 0.00 0.00 0.00 0.00 0.00 0.00 0.00 0.00 0.00 0.00 0.00 0.00
0.04 0.04 0.04 0.03 0.03 0.02 0.02 0.02 0.02 0.02 0.01 0.01 0.01 0.01 0.01 0.01 0.01 0.01 0.01 0.01 0.02 0.02 0.01 0.01 0.01 0.01 0.01 0.01 0.00 0.00 0.00 0.00 0.00 0.00 0.00 0.00 0.00 0.00 0.00 0.00 0.00 0.00 0.00
0.04 0.05 0.05 0.04 0.03 0.02 0.02 0.01 0.01 0.01 0.02 0.03 0.02 0.01 0.01 0.01 0.01 0.01 0.00 0.00 0.00 0.00 0.00 0.00 0.00 0.00 0.00 0.00 0.00 0.00 0.00 0.00 0.00 0.00 0.00 0.00 0.00 0.00 0.00 0.00 0.00 0.00 0.00
0.05 0.05 0.05 0.05 0.05 0.04 0.03 0.02 0.02 0.01 0.01 0.01 0.01 0.01 0.01 0.01 0.01 0.01 0.00 0.00 0.00 0.00 0.00 0.00 0.00 0.00 0.00 0.00 0.00 0.00 0.00 0.00 0.00 0.00 0.00 0.00 0.00 0.00 0.00 0.00 0.00 0.00 0.00
0.06 0.04 0.04 0.04 0.03 0.04 0.04 0.04 0.03 0.02 0.02 0.01 0.01 0.00 0.00 0.00 0.00 0.00 0.00 0.00 0.00 0.00 0.00 0.00 0.00 0.00 0.00 0.00 0.00 0.00 0.00 0.00 0.00 0.00 0.00 0.00 0.00 0.00 0.00 0.00 0.00 0.00 0.00
0.06 0.05 0.04 0.03 0.03 0.03 0.04 0.03 0.02 0.01 0.01 0.01 0.01 0.00 0.00 0.00 0.00 0.00 0.00 0.00 0.00 0.00 0.00 0.00 0.00 0.00 0.00 0.00 0.00 0.00 0.00 0.00 0.00 0.00 0.00 0.00 0.00 0.00 0.00 0.00 0.00 0.00 0.00
0.06 0.05 0.05 0.04 0.03 0.02 0.02 0.02 0.01 0.01 0.01 0.00 0.01 0.01 0.00 0.00 0.00 0.00 0.00 0.00 0.00 0.00 0.00 0.00 0.00 0.00 0.00 0.00 0.00 0.00 0.00 0.00 0.00 0.00 0.00 0.00 0.00 0.00 0.00 0.00 0.00 0.00 0.00
0.08 0.06 0.05 0.04 0.03 0.02 0.02 0.01 0.01 0.01 0.00 0.00 0.00 0.00 0.00 0.00 0.00 0.00 0.00 0.00 0.00 0.00 0.00 0.01 0.01 0.00 0.00 0.00 0.00 0.00 0.00 0.00 0.00 0.00 0.00 0.00 0.00 0.00 0.00 0.00 0.00 0.00 0.00
0.05 0.04 0.04 0.03 0.03 0.03 0.02 0.01 0.01 0.00 0.00 0.00 0.00 0.00 0.00 0.01 0.00 0.00 0.00 0.00 0.00 0.00 0.00 0.00 0.00 0.00 0.00 0.00 0.00 0.00 0.00 0.00 0.00 0.00 0.00 0.00 0.00 0.00 0.00 0.00 0.00 0.00 0.00
0.04 0.04 0.04 0.04 0.03 0.02 0.01 0.01 0.00 0.00 0.00 0.00 0.00 0.00 0.00 0.00 0.00 0.00 0.00 0.00 0.00 0.00 0.00 0.00 0.00 0.00 0.00 0.00 0.00 0.00 0.00 0.00 0.00 0.00 0.00 0.01 0.00 0.00 0.01 0.00 0.00 0.00 0.01
0.03 0.02 0.02 0.02 0.02 0.01 0.01 0.01 0.00 0.00 0.00 0.00 0.00 0.00 0.00 0.00 0.00 0.00 0.00 0.00 0.00 0.00 0.00 0.00 0.00 0.00 0.00 0.00 0.00 0.00 0.00 0.00 0.00 0.00 0.01 0.02 0.01 0.01 0.01 0.01 0.01 0.01 0.01
0.01 0.01 0.01 0.01 0.01 0.01 0.01 0.00 0.00 0.00 0.00 0.00 0.00 0.00 0.00 0.00 0.00 0.00 0.00 0.00 0.00 0.00 0.00 0.00 0.00 0.00 0.00 0.00 0.00 0.00 0.00 0.00 0.00 0.00 0.00 0.01 0.01 0.01 0.00 0.00 0.00 0.00 0.00
MSLP
1011.13 1011.13 1011.15 1011.18 1011.20 1011.22 1011.24 1011.27 1011.34 1011.48 1011.71 1012.03 1012.47 1012.99 1013.57 1014.19 1014.79 1015.34 1015.83 1016.24 1016.57 1016.84 1017.05 1017.23 1017.40 1017.56 1017.70 1017.81 1017.90 1017.95 1017.95 1017.91 1017.86 1017.79 1017.73 1017.69 1017.68 1017.68 1017.70 1017.72 1017.72 1017.70 1017.64
1012.25 1012.23 1012.18 1012.11 1011.99 1011.85 1011.69 1011.56 1011.49 1011.53 1011.71 1012.04 1012.52 1013.12 1013.81 1014.53 1015.24 1015.88 1016.44 1016.90 1017.26 1017.54 1017.75 1017.92 1018.06 1018.18 1018.27 1018.34 1018.37 1018.37 1018.34 1018.28 1018.21 1018.14 1018.10 1018.09 1018.11 1018.16 1018.22 1018.28 1018.30 1018.28 1018.22
1013.27 1013.23 1013.13 1012.97 1012.73 1012.44 1012.13 1011.85 1011.66 1011.63 1011.77 1012.11 1012.65 1013.34 1014.14 1014.98 1015.80 1016.55 1017.19 1017.71 1018.10 1018.39 1018.60 1018.74 1018.85 1018.92 1018.97 1019.00 1018.99 1018.95 1018.89 1018.81 1018.73 1018.67 1018.64 1018.65 1018.70 1018.77 1018.85 1018.92 1018.95 1018.93 1018.85
1014.16 1014.12 1013.99 1013.77 1013.44 1013.04 1012.62 1012.23 1011.96 1011.86 1011.98 1012.34 1012.93 1013.70 1014.60 1015.55 1016.47 1017.31 1018.03 1018.59 1019.02 1019.32 1019.52 1019.65 1019.72 1019.76 1019.78 1019.77 1019.73 1019.68 1019.60 1019.52 1019.44 1019.38 1019.36 1019.38 1019.43 1019.51 1019.58 1019.64 1019.65 1019.60 1019.49
1014.96 1014.94 1014.81 1014.57 1014.21 1013.76 1013.27 1012.82 1012.49 1012.36 1012.46 1012.83 1013.45 1014.27 1015.23 1016.24 1017.23 1018.13 1018.90 1019.51 1019.95 1020.26 1020.46 1020.57 1020.62 1020.64 1020.63 1020.61 1020.57 1020.51 1020.44 1020.36 1020.29 1020.25 1020.23 1020.24 1020.27 1020.32 1020.37 1020.38 1020.35 1020.26 1020.11
1015.72 1015.74 1015.66 1015.44 1015.10 1014.65 1014.16 1013.70 1013.36 1013.20 1013.29 1013.65 1014.26 1015.08 1016.05 1017.07 1018.08 1019.00 1019.78 1020.39 1020.84 1021.15 1021.34 1021.44 1021.48 1021.49 1021.48 1021.46 1021.42 1021.38 1021.32 1021.27 1021.22 1021.18 1021.15 1021.15 1021.16 1021.17 1021.16 1021.12 1021.03 1020.89 1020.68
1016.48 1016.57 1016.57 1016.44 1016.17 1015.78 1015.35 1014.92 1014.59 1014.43 1014.50 1014.83 1015.39 1016.16 1017.07 1018.05 1019.01 1019.89 1020.63 1021.22 1021.66 1021.95 1022.13 1022.22 1022.26 1022.27 1022.27 1022.25 1022.24 1022.21 1022.18 1022.15 1022.11 1022.08 1022.05 1022.03 1022.00 1021.96 1021.90 1021.80 1021.66 1021.46 1021.20
1017.25 1017.45 1017.56 1017.54 1017.39 1017.13 1016.79 1016.44 1016.15 1016.01 1016.06 1016.33 1016.82 1017.48 1018.28 1019.15 1020.00 1020.79 1021.46 1021.99 1022.38 1022.65 1022.81 1022.90 1022.94 1022.95 1022.95 1022.95 1022.95 1022.94 1022.93 1022.92 1022.89 1022.86 1022.83 1022.79 1022.73 1022.66 1022.55 1022.40 1022.21 1021.96 1021.67
1018.03 1018.34 1018.58 1018.71 1018.71 1018.59 1018.38 1018.14 1017.93 1017.82 1017.85 1018.06 1018.44 1018.97 1019.62 1020.33 1021.03 1021.68 1022.24 1022.69 1023.03 1023.26 1023.40 1023.48 1023.51 1023.53 1023.53 1023.54 1023.54 1023.54 1023.54 1023.53 1023.51 1023.48 1023.44 1023.38 1023.31 1023.21 1023.08 1022.90 1022.69 1022.42 1022.10
1018.77 1019.20 1019.56 1019.84 1019.99 1020.03 1019.98 1019.87 1019.75 1019.68 1019.71 1019.85 1020.12 1020.51 1020.99 1021.52 1022.05 1022.55 1022.99 1023.35 1023.62 1023.81 1023.92 1023.99 1024.02 1024.03 1024.03 1024.02 1024.02 1024.01 1023.99 1023.97 1023.95 1023.91 1023.86 1023.80 1023.71 1023.61 1023.47 1023.30 1023.09 1022.83 1022.52
1019.43 1019.94 1020.42 1020.82 1021.12 1021.31 1021.40 1021.43 1021.41 1021.41 1021.44 1021.54 1021.71 1021.97 1022.28 1022.64 1023.01 1023.36 1023.68 1023.95 1024.16 1024.31 1024.41 1024.47 1024.49 1024.49 1024.48 1024.45 1024.42 1024.38 1024.34 1024.29 1024.24 1024.19 1024.13 1024.06 1023.98 1023.88 1023.76 1023.61 1023.42 1023.19 1022.91
1019.99 1020.56 1021.10 1021.59 1021.99 1022.30 1022.53 1022.67 1022.76 1022.83 1022.88 1022.96 1023.07 1023.21 1023.40 1023.61 1023.84 1024.08 1024.30 1024.49 1024.66 1024.79 1024.88 1024.94 1024.95 1024.94 1024.91 1024.85 1024.78 1024.71 1024.62 1024.54 1024.45 1024.37 1024.30 1024.22 1024.15 1024.07 1023.97 1023.85 1023.69 1023.50 1023.25
1020.46 1021.04 1021.60 1022.12 1022.58 1022.97 1023.29 1023.54 1023.72 1023.85 1023.95 1024.02 1024.09 1024.17 1024.26 1024.37 1024.50 1024.65 1024.81 1024.96 1025.11 1025.23 1025.33 1025.39 1025.41 1025.40 1025.34 1025.26 1025.15 1025.03 1024.89 1024.76 1024.64 1024.53 1024.43 1024.34 1024.27 1024.19 1024.11 1024.01 1023.88 1023.72 1023.50
1020.89 1021.43 1021.95 1022.45 1022.92 1023.34 1023.72 1024.03 1024.28 1024.48 1024.62 1024.71 1024.77 1024.81 1024.85 1024.90 1024.97 1025.07 1025.20 1025.34 1025.48 1025.62 1025.74 1025.82 1025.85 1025.84 1025.77 1025.66 1025.52 1025.35 1025.18 1025.00 1024.84 1024.69 1024.56 1024.45 1024.36 1024.28 1024.19 1024.10 1023.98 1023.82 1023.63
1021.32 1021.78 1022.22 1022.66 1023.08 1023.49 1023.88 1024.23 1024.53 1024.77 1024.94 1025.06 1025.13 1025.16 1025.18 1025.21 1025.26 1025.34 1025.46 1025.60 1025.77 1025.93 1026.08 1026.18 1026.24 1026.23 1026.16 1026.04 1025.87 1025.67 1025.46 1025.25 1025.05 1024.87 1024.70 1024.56 1024.44 1024.32 1024.21 1024.09 1023.96 1023.79 1023.58
1021.78 1022.14 1022.48 1022.82 1023.17 1023.53 1023.90 1024.25 1024.57 1024.83 1025.04 1025.18 1025.26 1025.30 1025.32 1025.35 1025.39 1025.48 1025.60 1025.77 1025.96 1026.15 1026.33 1026.46 1026.54 1026.55 1026.48 1026.36 1026.18 1025.97 1025.73 1025.49 1025.26 1025.04 1024.85 1024.66 1024.49 1024.33 1024.17 1024.00 1023.82 1023.60 1023.36
1022.28 1022.53 1022.77 1023.01 1023.27 1023.57 1023.89 1024.22 1024.53 1024.81 1025.02 1025.18 1025.28 1025.33 1025.36 1025.39 1025.44 1025.54 1025.68 1025.87 1026.08 1026.30 1026.50 1026.65 1026.75 1026.77 1026.71 1026.59 1026.41 1026.19 1025.95 1025.70 1025.45 1025.20 1024.97 1024.74 1024.52 1024.29 1024.07 1023.83 1023.57 1023.30 1023.00
1022.80 1022.96 1023.11 1023.26 1023.45 1023.68 1023.95 1024.25 1024.54 1024.80 1025.01 1025.17 1025.27 1025.33 1025.37 1025.41 1025.47 1025.58 1025.74 1025.94 1026.16 1026.39 1026.60 1026.77 1026.87 1026.90 1026.85 1026.73 1026.56 1026.34 1026.10 1025.85 1025.58 1025.32 1025.05 1024.78 1024.50 1024.22 1023.91 1023.60 1023.27 1022.92 1022.55
1023.29 1023.40 1023.48 1023.58 1023.71 1023.89 1024.12 1024.38 1024.64 1024.88 1025.08 1025.23 1025.33 1025.40 1025.44 1025.48 1025.56 1025.67 1025.84 1026.04 1026.26 1026.49 1026.70 1026.86 1026.95 1026.98 1026.93 1026.81 1026.64 1026.43 1026.19 1025.93 1025.66 1025.38 1025.09 1024.78 1024.46 1024.11 1023.74 1023.35 1022.95 1022.53 1022.11
1023.71 1023.80 1023.86 1023.93 1024.04 1024.19 1024.39 1024.61 1024.85 1025.07 1025.25 1025.39 1025.48 1025.55 1025.59 1025.65 1025.73 1025.85 1026.01 1026.21 1026.43 1026.64 1026.83 1026.97 1027.04 1027.05 1026.98 1026.86 1026.68 1026.47 1026.23 1025.98 1025.70 1025.41 1025.10 1024.76 1024.40 1024.00 1023.58 1023.14 1022.68 1022.22 1021.75
1024.03 1024.13 1024.21 1024.29 1024.39 1024.54 1024.72 1024.92 1025.14 1025.33 1025.49 1025.62 1025.71 1025.77 1025.83 1025.89 1025.99 1026.11 1026.28 1026.47 1026.67 1026.86 1027.02 1027.13 1027.17 1027.15 1027.06 1026.91 1026.73 1026.51 1026.26 1026.00 1025.72 1025.42 1025.10 1024.74 1024.35 1023.93 1023.48 1023.00 1022.51 1022.02 1021.53
1024.25 1024.38 1024.49 1024.60 1024.73 1024.88 1025.06 1025.25 1025.44 1025.62 1025.77 1025.88 1025.97 1026.04 1026.11 1026.19 1026.30 1026.44 1026.61 1026.79 1026.98 1027.15 1027.27 1027.34 1027.35 1027.29 1027.17 1027.00 1026.79 1026.55 1026.30 1026.03 1025.74 1025.44 1025.11 1024.74 1024.34 1023.91 1023.45 1022.96 1022.46 1021.96 1021.47
1024.38 1024.56 1024.71 1024.86 1025.01 1025.18 1025.36 1025.54 1025.72 1025.88 1026.01 1026.12 1026.21 1026.30 1026.38 1026.49 1026.62 1026.78 1026.95 1027.14 1027.31 1027.45 1027.55 1027.58 1027.55 1027.45 1027.30 1027.10 1026.86 1026.61 1026.34 1026.07 1025.78 1025.47 1025.14 1024.77 1024.38 1023.95 1023.50 1023.02 1022.54 1022.05 1021.56
1024.46 1024.68 1024.87 1025.05 1025.23 1025.40 1025.58 1025.76 1025.92 1026.06 1026.19 1026.29 1026.39 1026.49 1026.60 1026.73 1026.88 1027.06 1027.25 1027.43 1027.59 1027.72 1027.79 1027.79 1027.72 1027.59 1027.41 1027.18 1026.93 1026.66 1026.38 1026.10 1025.81 1025.51 1025.19 1024.84 1024.46 1024.06 1023.62 1023.18 1022.72 1022.26 1021.79
1024.51 1024.76 1024.98 1025.18 1025.37 1025.55 1025.72 1025.88 1026.02 1026.15 1026.26 1026.36 1026.47 1026.58 1026.71 1026.86 1027.04 1027.23 1027.43 1027.61 1027.77 1027.88 1027.92 1027.90 1027.81 1027.65 1027.45 1027.21 1026.95 1026.68 1026.40 1026.13 1025.85 1025.56 1025.26 1024.93 1024.59 1024.21 1023.82 1023.41 1022.99 1022.56 1022.12
1024.56 1024.82 1025.05 1025.25 1025.44 1025.61 1025.76 1025.90 1026.02 1026.13 1026.23 1026.33 1026.44 1026.56 1026.70 1026.87 1027.06 1027.26 1027.46 1027.64 1027.79 1027.88 1027.91 1027.87 1027.76 1027.60 1027.39 1027.15 1026.90 1026.64 1026.38 1026.12 1025.87 1025.61 1025.34 1025.06 1024.75 1024.42 1024.07 1023.70 1023.31 1022.91 1022.50
Thickness
5729 5733 5736 5738 5739 5737 5738 5735 5732 5733 5733 5732 5729 5725 5722 5720 5718 5716 5715 5714 5714 5713 5713 5711 5710 5709 5706 5705 5703 5701 5698 5695 5693 5690 5685 5683 5682 5680 5677 5676 5675 5673 5671
5716 5719 5722 5725 5728 5727 5727 5723 5723 5727 5727 5727 5724 5719 5715 5711 5708 5706 5705 5704 5704 5704 5702 5701 5700 5699 5697 5695 5694 5693 5690 5686 5684 5681 5676 5672 5669 5668 5666 5665 5664 5662 5660
5706 5708 5710 5712 5716 5718 5720 5717 5716 5719 5719 5719 5716 5711 5706 5701 5697 5694 5694 5692 5693 5693 5692 5691 5689 5689 5688 5685 5684 5684 5682 5677 5674 5673 5670 5665 5660 5657 5655 5653 5652 5650 5648
5695 5696 5699 5700 5703 5708 5709 5709 5708 5710 5711 5711 5709 5704 5698 5691 5685 5682 5681 5680 5681 5681 5680 5680 5679 5678 5676 5675 5674 5673 5672 5670 5665 5662 5659 5656 5653 5648 5644 5641 5639 5638 5636
5685 5685 5687 5688 5692 5696 5698 5699 5700 5700 5701 5700 5698 5694 5688 5682 5676 5672 5671 5670 5670 5669 5669 5669 5668 5666 5664 5664 5663 5661 5660 5657 5654 5650 5647 5644 5641 5638 5634 5628 5625 5624 5622
5673 5675 5675 5678 5682 5685 5686 5689 5690 5688 5688 5688 5687 5684 5678 5673 5668 5663 5661 5659 5657 5656 5656 5656 5655 5654 5652 5651 5650 5648 5646 5643 5640 5637 5634 5630 5626 5622 5619 5615 5611 5609 5607
5660 5661 5664 5667 5669 5671 5672 5674 5675 5675 5674 5675 5673 5671 5667 5663 5658 5654 5651 5648 5645 5643 5642 5642 5642 5641 5639 5638 5636 5634 5630 5628 5625 5622 5618 5615 5611 5609 5605 5602 5597 5594 5592
5648 5649 5650 5653 5654 5656 5658 5659 5661 5661 5660 5660 5658 5656 5653 5650 5645 5641 5638 5636 5633 5630 5629 5628 5628 5627 5626 5624 5622 5619 5616 5613 5610 5607 5604 5601 5597 5595 5592 5588 5584 5579 5575
5636 5636 5637 5639 5639 5640 5642 5644 5646 5647 5646 5644 5643 5641 5639 5636 5632 5628 5625 5623 5621 5618 5616 5615 5614 5613 5611 5609 5607 5604 5601 5598 5595 5592 5589 5586 5582 5580 5578 5575 5571 5566 5559
5625 5625 5626 5627 5626 5627 5628 5630 5631 5631 5630 5629 5628 5625 5623 5620 5618 5615 5612 5610 5607 5605 5603 5601 5600 5598 5596 5594 5592 5589 5586 5584 5581 5578 5575 5571 5568 5566 5563 5560 5557 5552 5546
5615 5613 5614 5614 5615 5615 5615 5615 5616 5616 5615 5614 5612 5610 5608 5606 5603 5601 5598 5596 5593 5591 5589 5587 5586 5584 5581 5579 5577 5574 5572 5569 5566 5564 5561 5558 5555 5551 5548 5545 5541 5537 5533
5605 5604 5603 5602 5602 5602 5601 5601 5601 5601 5600 5599 5597 5595 5593 5591 5589 5586 5584 5583 5581 5578 5575 5574 5572 5569 5566 5564 5562 5559 5557 5554 5551 5549 5546 5544 5542 5537 5534 5530 5527 5523 5519
5595 5593 5592 5592 5590 5589 5588 5587 5586 5586 5585 5584 5582 5580 5578 5576 5575 5572 5570 5569 5567 5564 5562 5560 5557 5554 5552 5549 5547 5545 5543 5541 5538 5536 5533 5531 5528 5524 5521 5517 5513 5510 5508
5585 5582 5580 5579 5578 5577 5576 5575 5573 5572 5571 5570 5568 5566 5564 5563 5561 5559 5557 5555 5554 5551 5549 5546 5543 5541 5538 5536 5534 5532 5530 5528 5526 5524 5522 5519 5516 5513 5509 5506 5502 5499 5496
5577 5573 5570 5567 5566 5565 5564 5563 5561 5559 5558 5557 5555 5553 5551 5550 5549 5547 5545 5543 5541 5539 5536 5534 5531 5529 5527 5524 5522 5520 5519 5517 5515 5513 5511 5508 5506 5503 5500 5497 5493 5490 5486
5571 5566 5561 5558 5556 5554 5553 5551 5549 5548 5547 5545 5543 5542 5540 5539 5537 5535 5534 5531 5529 5526 5524 5521 5519 5517 5515 5513 5512 5511 5508 5506 5504 5502 5500 5498 5496 5493 5491 5489 5487 5484 5480
5563 5557 5553 5549 5547 5544 5543 5541 5539 5538 5536 5535 5533 5531 5530 5529 5527 5526 5523 5520 5518 5515 5512 5509 5507 5505 5504 5503 5502 5502 5500 5497 5494 5492 5490 5489 5487 5484 5481 5480 5480 5478 5476
5554 5548 5544 5540 5538 5536 5534 5532 5530 5529 5527 5526 5524 5522 5521 5519 5517 5515 5512 5510 5508 5505 5502 5500 5498 5496 5495 5494 5493 5492 5490 5488 5486 5484 5482 5480 5477 5476 5474 5472 5471 5471 5470
5545 5539 5535 5532 5529 5527 5525 5524 5522 5520 5518 5516 5515 5513 5512 5510 5507 5505 5503 5501 5498 5496 5494 5492 5490 5487 5486 5486 5484 5483 5481 5479 5478 5477 5476 5474 5471 5470 5468 5466 5464 5464 5465
5536 5531 5527 5524 5521 5518 5517 5515 5513 5511 5509 5508 5506 5505 5503 5501 5498 5496 5495 5493 5491 5489 5487 5485 5482 5480 5479 5477 5476 5475 5473 5470 5470 5469 5469 5469 5467 5466 5464 5462 5459 5458 5459
5528 5524 5520 5516 5513 5511 5509 5506 5504 5501 5501 5500 5499 5497 5495 5493 5491 5489 5488 5486 5484 5481 5479 5477 5475 5473 5472 5470 5469 5467 5465 5463 5463 5463 5463 5464 5464 5463 5463 5461 5458 5456 5456
5520 5516 5512 5508 5505 5503 5500 5497 5494 5494 5493 5492 5491 5489 5487 5487 5485 5482 5479 5478 5476 5473 5471 5469 5467 5466 5464 5463 5461 5461 5460 5460 5458 5458 5459 5460 5461 5462 5462 5460 5459 5458 5456
5513 5508 5504 5500 5497 5495 5493 5490 5488 5488 5487 5485 5483 5482 5481 5479 5477 5474 5472 5469 5467 5464 5462 5461 5459 5457 5456 5455 5455 5455 5455 5455 5455 5455 5456 5458 5459 5460 5459 5458 5457 5456 5453
5506 5502 5498 5494 5490 5488 5486 5484 5483 5482 5481 5478 5476 5475 5473 5471 5469 5467 5465 5462 5459 5457 5455 5454 5452 5451 5450 5449 5450 5450 5451 5452 5452 5452 5454 5456 5456 5455 5455 5454 5453 5452 5450
5501 5497 5492 5489 5485 5483 5481 5480 5479 5477 5474 5472 5471 5469 5467 5465 5462 5460 5457 5456 5454 5453 5451 5449 5448 5446 5446 5446 5446 5446 5446 5447 5447 5448 5449 5449 5448 5448 5448 5448 5448 5447 5446
5497 5492 5488 5485 5482 5480 5478 5476 5475 5473 5470 5467 5466 5463 5462 5459 5457 5455 5452 5451 5450 5450 5449 5448 5446 5445 5445 5444 5445 5445 5446 5447 5447 5445 5442 5441 5441 5441 5441 5441 5441 5441 5440